Alva, OK

11:56 AM CDT on September 24, 2017 (GMT -0500)
Alva Regional

Weather History for KAVK - November, 2011

Change the Weather History Date:

Sunday, November 27, 2011

  Actual Average Record
Temperature  
Mean Temperature 38 °F -  
Max Temperature 46 °F 51 °F 74 °F (1949)
Min Temperature 30 °F 30 °F 13 °F (1975)
Degree Days  
Heating Degree Days 27    
Moisture  
Dew Point 17 °F    
Average Humidity 45    
Maximum Humidity 69    
Minimum Humidity 27    
Precipitation  
Precipitation 0.00 in - - ()
Sea Level Pressure  
Sea Level Pressure 30.33 in    
Wind  
Wind Speed 15 mph (NNW)    
Max Wind Speed 21 mph    
Max Gust Speed 29 mph    
Visibility 10 miles    
Events      
Averages and records for this station are not official NWS values.
T = Trace of Precipitation, MM = Missing Value Source: NWS Daily Summary

Daily Weather History Graph

Daily Weather History Graph

Search for Another Location

Airport or City:

Trip Planner

Search our weather history database for the weather conditions in past years. The results will help you decide how hot, cold, wet, or windy it might be!

Date:

Astronomy

Nov. 27, 2011 Rise Set
Actual Time 7:24 AM CST 5:19 PM CST
Civil Twilight 6:56 AM CST 5:47 PM CST
Nautical Twilight 6:24 AM CST 6:19 PM CST
Astronomical Twilight 5:53 AM CST 6:50 PM CST
Moon 9:50 AM CST (11/27) 8:00 PM CST (11/27)
Length of Visible Light 10h 51m
Length of Day
9h 54m
Waxing Crescent, 8% of the Moon is Illuminated
Nov 27
Waxing Crescent
Dec 2
First Quarter
Dec 10
Full
Dec 17
Last Quarter
Dec 24
New

Hourly Weather History & Observations

Time (CST) Temp. Windchill Dew Point Humidity Pressure Visibility Wind Dir Wind Speed Gust Speed Precip Events Conditions
12:15 AM 35.6 °F 25.2 °F 14.0 °F 41% 30.36 in 10.0 mi NNW 18.4 mph 23.0 mph N/A   Clear
12:35 AM 35.6 °F 24.8 °F 14.0 °F 41% 30.35 in 10.0 mi NNW 19.6 mph 27.6 mph N/A   Clear
12:55 AM 35.6 °F 25.5 °F 14.0 °F 41% 30.35 in 10.0 mi NNW 17.3 mph 26.5 mph N/A   Clear
1:35 AM 35.6 °F 24.5 °F 14.0 °F 41% 30.35 in 10.0 mi NNW 20.7 mph 25.3 mph N/A   Clear
1:55 AM 35.6 °F 24.8 °F 14.0 °F 41% 30.35 in 10.0 mi NNW 19.6 mph 24.2 mph N/A   Partly Cloudy
2:35 AM 35.6 °F 24.5 °F 14.0 °F 41% 30.35 in 10.0 mi North 20.7 mph 28.8 mph N/A   Partly Cloudy
3:15 AM 32.0 °F 22.5 °F 17.6 °F 55% 30.36 in 10.0 mi NW 12.7 mph - N/A   Clear
3:35 AM 32.0 °F 22.5 °F 17.6 °F 55% 30.36 in 10.0 mi NNW 12.7 mph 18.4 mph N/A   Clear
3:55 AM 32.0 °F 22.5 °F 19.4 °F 60% 30.36 in 10.0 mi NNW 12.7 mph - N/A   Clear
4:15 AM 32.0 °F 23.6 °F 19.4 °F 60% 30.36 in 10.0 mi NNW 10.4 mph - N/A   Clear
4:35 AM 32.0 °F 22.5 °F 17.6 °F 55% 30.36 in 10.0 mi NNW 12.7 mph 16.1 mph N/A   Clear
5:15 AM 32.0 °F 21.6 °F 17.6 °F 55% 30.36 in 10.0 mi NNW 15.0 mph 18.4 mph N/A   Clear
5:35 AM 32.0 °F 21.6 °F 15.8 °F 51% 30.36 in 10.0 mi NNW 15.0 mph - N/A   Clear
6:15 AM 32.0 °F 22.1 °F 15.8 °F 51% 30.37 in 10.0 mi NNW 13.8 mph 21.9 mph N/A   Clear
6:35 AM 32.0 °F 21.6 °F 15.8 °F 51% 30.37 in 10.0 mi NNW 15.0 mph 19.6 mph N/A   Clear
6:55 AM 32.0 °F 21.6 °F 14.0 °F 48% 30.38 in 10.0 mi NNW 15.0 mph - N/A   Clear
7:55 AM 30.2 °F 20.2 °F 17.6 °F 60% 30.39 in 10.0 mi NNW 12.7 mph - N/A   Clear
8:15 AM 32.0 °F 22.1 °F 15.8 °F 51% 30.40 in 10.0 mi NNW 13.8 mph 17.3 mph N/A   Clear
8:35 AM 32.0 °F 21.2 °F 14.0 °F 48% 30.40 in 10.0 mi NNW 16.1 mph 20.7 mph N/A   Clear
8:55 AM 32.0 °F 22.1 °F 15.8 °F 51% 30.40 in 10.0 mi NNW 13.8 mph 21.9 mph N/A   Clear
9:15 AM 33.8 °F 24.3 °F 15.8 °F 48% 30.40 in 10.0 mi North 13.8 mph 19.6 mph N/A   Clear
9:35 AM 35.6 °F 25.5 °F 15.8 °F 44% 30.41 in 10.0 mi North 17.3 mph - N/A   Clear
9:55 AM 35.6 °F 26.6 °F 15.8 °F 44% 30.41 in 10.0 mi North 13.8 mph 23.0 mph N/A   Clear
10:15 AM 37.4 °F 27.5 °F 14.0 °F 38% 30.41 in 10.0 mi North 18.4 mph 21.9 mph N/A   Clear
10:35 AM 37.4 °F 28.2 °F 15.8 °F 41% 30.40 in 10.0 mi North 16.1 mph 23.0 mph N/A   Clear
10:55 AM 39.2 °F 30.8 °F 15.8 °F 39% 30.39 in 10.0 mi North 15.0 mph 25.3 mph N/A   Clear
11:15 AM 39.2 °F 29.8 °F 14.0 °F 36% 30.38 in 10.0 mi North 18.4 mph 23.0 mph N/A   Clear
11:35 AM 41.0 °F 33.1 °F 15.8 °F 36% 30.38 in 10.0 mi North 15.0 mph 25.3 mph N/A   Clear
11:55 AM 41.0 °F 32.2 °F 15.8 °F 36% 30.36 in 10.0 mi North 18.4 mph - N/A   Clear
12:15 PM 41.0 °F 32.5 °F 15.8 °F 36% 30.35 in 10.0 mi NNW 17.3 mph 23.0 mph N/A   Clear
12:35 PM 42.8 °F 34.3 °F 14.0 °F 31% 30.33 in 10.0 mi NNW 19.6 mph 23.0 mph N/A   Clear
12:55 PM 44.6 °F 37.8 °F 15.8 °F 31% 30.32 in 10.0 mi NNW 15.0 mph 20.7 mph N/A   Clear
1:15 PM 44.6 °F 36.9 °F 15.8 °F 31% 30.32 in 10.0 mi North 18.4 mph 23.0 mph N/A   Clear
1:35 PM 46.4 °F 40.1 °F 15.8 °F 29% 30.31 in 10.0 mi North 15.0 mph 19.6 mph N/A   Clear
1:55 PM 46.4 °F 40.4 °F 15.8 °F 29% 30.30 in 10.0 mi NNW 13.8 mph - N/A   Clear
2:15 PM 46.4 °F 39.5 °F 14.0 °F 27% 30.30 in 10.0 mi North 17.3 mph 21.9 mph N/A   Clear
2:35 PM 46.4 °F 40.7 °F 15.8 °F 29% 30.29 in 10.0 mi North 12.7 mph 19.6 mph N/A   Clear
2:55 PM 46.4 °F 39.8 °F 15.8 °F 29% 30.28 in 10.0 mi NNW 16.1 mph - N/A   Clear
3:15 PM 46.4 °F 41.5 °F 14.0 °F 27% 30.28 in 10.0 mi NNW 10.4 mph - N/A   Clear
3:35 PM 46.4 °F 40.1 °F 14.0 °F 27% 30.28 in 10.0 mi NNW 15.0 mph - N/A   Clear
3:55 PM 46.4 °F 40.4 °F 14.0 °F 27% 30.28 in 10.0 mi North 13.8 mph 19.6 mph N/A   Clear
4:15 PM 46.4 °F 40.4 °F 14.0 °F 27% 30.28 in 10.0 mi NNW 13.8 mph 18.4 mph N/A   Clear
4:35 PM 44.6 °F 39.2 °F 15.8 °F 31% 30.28 in 10.0 mi North 10.4 mph - N/A   Clear
4:55 PM 44.6 °F 40.2 °F 15.8 °F 31% 30.27 in 10.0 mi NNW 8.1 mph - N/A   Clear
5:15 PM 41.0 °F 36.4 °F 17.6 °F 39% 30.27 in 10.0 mi NNW 6.9 mph - N/A   Clear
5:35 PM 39.2 °F 33.6 °F 15.8 °F 39% 30.27 in 10.0 mi NNW 8.1 mph - N/A   Clear
5:55 PM 35.6 °F 29.9 °F 23.0 °F 60% 30.27 in 10.0 mi NW 6.9 mph - N/A   Clear
6:15 PM 37.4 °F 30.8 °F 19.4 °F 48% 30.27 in 10.0 mi NW 9.2 mph - N/A   Clear
6:55 PM 35.6 °F 29.2 °F 19.4 °F 52% 30.26 in 10.0 mi NW 8.1 mph - N/A   Clear
7:15 PM 32.0 °F 25.6 °F 23.0 °F 69% 30.26 in 10.0 mi NW 6.9 mph - N/A   Clear
7:35 PM 32.0 °F 25.6 °F 23.0 °F 69% 30.26 in 10.0 mi NW 6.9 mph - N/A   Clear
7:55 PM 32.0 °F 24.8 °F 23.0 °F 69% 30.26 in 10.0 mi NW 8.1 mph - N/A   Clear
8:15 PM 32.0 °F 24.8 °F 23.0 °F 69% 30.26 in 10.0 mi NW 8.1 mph - N/A   Partly Cloudy
8:35 PM 32.0 °F 23.6 °F 21.2 °F 64% 30.25 in 10.0 mi NW 10.4 mph - N/A   Clear
8:55 PM 33.8 °F 27.0 °F 21.2 °F 60% 30.25 in 10.0 mi NW 8.1 mph - N/A   Clear
9:15 PM 33.8 °F 27.0 °F 21.2 °F 60% 30.24 in 10.0 mi NW 8.1 mph - N/A   Clear
9:35 PM 32.0 °F 25.6 °F 21.2 °F 64% 30.24 in 10.0 mi NW 6.9 mph - N/A   Clear
9:55 PM 32.0 °F 27.5 °F 23.0 °F 69% 30.23 in 10.0 mi NW 4.6 mph - N/A   Clear
10:15 PM 30.2 °F 26.7 °F 23.0 °F 75% 30.23 in 10.0 mi NW 3.5 mph - N/A   Clear
10:35 PM 32.0 °F 28.7 °F 19.4 °F 60% 30.23 in 10.0 mi WNW 3.5 mph - N/A   Clear
11:15 PM 28.4 °F 21.2 °F 23.0 °F 80% 30.22 in 10.0 mi NW 6.9 mph - N/A   Clear
11:35 PM 28.4 °F 22.2 °F 23.0 °F 80% 30.22 in 10.0 mi NW 5.8 mph - N/A   Clear
11:55 PM 28.4 °F 22.2 °F 23.0 °F 80% 30.22 in 10.0 mi WNW 5.8 mph - N/A   Clear